x

8461490 - New London, Ct (nlnc3) Weather Station

1:30 - Fri 28th Aug 2015 All times are EDT. -4 hours from GMT.

  • Wind
    8mph, 14mph gusts
  • Sea Temp 74°f
  • Aire Temp 74°f
  • Sea Pressure 1020mb
  • 8461490 - New London, Ct
  • 8461490 - New London, Ct

More Historic Weather Station data

Upgrade to MSW Pro to gain access to the past 30 days of data for over 8000 Wavebouys and Weather Stations around the globe.

Join Pro

Comparision Forecast

View Surf forecast
   
vie 08/28 1:30 8 14 mph 1020mb 74f 74f
1:24 9 17 mph 1020mb 74f 74f
1:18 9 11 mph 1020mb 74f 75f
1:12 10 13 mph 1020mb 74f 74f
1:06 8 13 mph 1020mb 74f 74f
1:00 8 10 mph 1020.1mb 74f 74f
12:54 7 8 mph 1020.1mb 74f 74f
12:48 8 13 mph 1020.1mb 74f 75f
12:42 10 11 mph 1020mb 74f 74f
12:36 11 13 mph 1020.1mb 74f 74f
12:30 10 11 mph 1020.2mb 74f 74f
12:24 10 11 mph 1020.2mb 74f 74f
12:18 11 13 mph 1020.3mb 74f 74f
12:12 10 14 mph 1020.3mb 74f 73f
12:06 9 11 mph 1020.3mb 73f 74f
12:00 10 11 mph 1020.4mb 73f 74f
11:54 3 5 mph 1020.3mb 73f 75f
11:48 2 5 mph 1020.3mb 74f 73f
11:42 2 3 mph 1020.3mb 73f 73f
11:36 3 5 mph 1020.3mb 73f 73f
11:30 1 5 mph 1020.3mb 74f 74f
11:24 1 5 mph 1020.3mb 74f 75f
11:18 2 5 mph 1020.3mb 74f 74f
11:12 3 7 mph 1020.3mb 74f 74f
11:06 3 6 mph 1020.3mb 74f 74f
11:00 5 6 mph 1020.2mb 73f 73f
10:54 6 7 mph 1020.2mb 73f 73f
10:48 5 7 mph 1020.2mb 73f 73f
10:42 3 6 mph 1020.2mb 73f 72f
10:36 5 6 mph 1020.2mb 73f 72f
10:30 5 6 mph 1020.2mb 73f 71f
10:24 6 7 mph 1020.2mb 73f 71f
10:18 5 6 mph 1020.2mb 73f 71f
10:12 6 7 mph 1020.2mb 73f 71f
10:06 3 7 mph 1020.2mb 73f 71f
10:00 5 8 mph 1020.1mb 72f 70f
9:54 7 8 mph 1020.1mb 73f 69f
9:48 5 8 mph 1020mb 73f 70f
9:42 5 7 mph 1019.9mb 73f 69f
9:36 3 9 mph 1019.9mb 73f 69f
9:30 5 7 mph 1019.9mb 73f 69f
9:24 5 8 mph 1019.9mb 73f 68f
9:18 6 9 mph 1019.9mb 73f 68f
9:12 5 9 mph 1019.8mb 73f 67f
9:06 6 8 mph 1019.8mb 72f 67f
9:00 5 9 mph 1019.8mb 73f 67f
8:54 5 8 mph 1019.7mb 72f 66f
8:48 6 8 mph 1019.7mb 73f 66f
8:42 5 8 mph 1019.7mb 72f 66f
8:36 5 8 mph 1019.7mb 73f 65f
8:30 6 9 mph 1019.7mb 73f 65f
8:24 6 9 mph 1019.7mb 73f 65f
8:18 6 9 mph 1019.7mb 73f 64f
8:12 3 7 mph 1019.7mb 73f 65f
8:06 3 8 mph 1019.6mb 73f 64f
8:00 3 9 mph 1019.6mb 73f 64f
7:54 3 8 mph 1019.5mb 73f 64f
7:48 6 9 mph 1019.6mb 73f 64f
7:42 3 9 mph 1019.5mb 73f 64f
7:36 6 9 mph 1019.5mb 73f 63f
7:30 6 9 mph 1019.4mb 73f 63f
7:24 6 8 mph 1019.4mb 73f 63f
7:18 6 8 mph 1019.4mb 73f 63f
7:12 6 9 mph 1019.3mb 73f 62f
7:06 5 6 mph 1019.3mb 73f 63f
7:00 3 7 mph 1019.3mb 73f 62f
6:54 5 7 mph 1019.2mb 73f 62f
6:48 5 8 mph 1019.1mb 73f 62f
6:42 5 8 mph 1019.1mb 73f 61f
6:36 5 7 mph 1018.9mb 73f 61f
6:30 6 7 mph 1018.9mb 73f 61f
6:24 5 7 mph 1018.8mb 73f 61f
6:18 6 7 mph 1018.7mb 73f 61f
6:12 6 7 mph 1018.7mb 73f 60f
6:06 6 8 mph 1018.6mb 73f 60f
6:00 3 6 mph 1018.6mb 73f 61f
5:54 3 6 mph 1018.6mb 73f 61f
5:48 3 6 mph 1018.5mb 73f 61f
5:42 3 6 mph 1018.5mb 73f 61f
5:36 5 7 mph 1018.5mb 73f 61f
5:30 5 7 mph 1018.4mb 73f 61f
5:24 5 7 mph 1018.4mb 73f 61f
5:18 3 6 mph 1018.4mb 73f 62f
5:12 5 8 mph 1018.3mb 73f 62f
5:06 6 8 mph 1018.3mb 73f 62f
5:00 5 8 mph 1018.2mb 73f 62f
4:54 5 8 mph 1018.2mb 72f 62f
4:48 6 8 mph 1018.2mb 72f 62f
4:42 6 9 mph 1018.1mb 73f 62f
4:36 5 8 mph 1018.1mb 73f 63f
4:30 5 7 mph 1018.1mb 73f 63f
4:24 3 6 mph 1018.1mb 73f 63f
4:18 3 5 mph 1018.1mb 74f 63f
4:12 2 6 mph 1018.1mb 74f 63f
4:06 2 6 mph 1018.1mb 74f 63f
4:00 3 7 mph 1018mb 74f 64f
3:54 5 7 mph 1018mb 74f 64f
3:48 5 7 mph 1018mb 74f 64f
3:42 2 6 mph 1018mb 74f 64f
3:36 3 6 mph 1018mb 74f 64f
3:30 5 7 mph 1018mb 74f 64f
3:24 5 7 mph 1018mb 74f 64f
3:18  -  mph - - 64f
3:12  -  mph - - 64f
3:06  -  mph - - 64f
3:00 2 3 mph 1018mb 74f 63f
2:54 3 6 mph 1017.9mb 74f 64f
2:48 3 6 mph 1017.9mb 74f 64f
2:42 5 7 mph 1017.9mb 74f 64f
2:36 5 7 mph 1017.9mb 74f 64f
2:30 5 7 mph 1017.9mb 74f 64f
2:24 1 5 mph 1018mb 74f 65f
2:18 2 7 mph 1017.9mb 74f 65f
2:12 5 8 mph 1017.9mb 74f 65f
2:06 3 7 mph 1017.9mb 74f 65f
2:00 5 7 mph 1017.9mb 74f 65f
1:54 3 6 mph 1018mb 74f 65f
1:48 3 7 mph 1018mb 74f 65f
1:42 3 6 mph 1018mb 74f 65f
1:36 1 3 mph 1018mb 74f 65f
1:30 2 3 mph 1018.1mb 74f 65f
1:24 2 5 mph 1018.1mb 74f 65f
1:18 3 5 mph 1018.1mb 74f 65f
1:12  -  5 mph 1018.1mb 74f 65f
1:06 3 7 mph 1018.1mb 74f 66f
1:00 3 6 mph 1018.1mb 74f 66f
12:54 3 7 mph 1018.2mb 74f 66f
12:48 5 7 mph 1018.1mb 74f 66f
12:42 5 7 mph 1018.1mb 74f 66f
12:36 6 8 mph 1018mb 74f 66f
12:30 5 7 mph 1018.1mb 74f 66f
12:24 6 7 mph 1018.1mb 74f 67f
12:18 3 7 mph 1018.1mb 74f 67f
12:12 5 7 mph 1018.1mb 74f 67f
12:06 3 7 mph 1018mb 74f 67f
12:00 5 7 mph 1018mb 74f 67f
jue 08/27 11:54 3 9 mph 1017.9mb 74f 68f
11:48 6 8 mph 1017.8mb 74f 68f
11:42 5 7 mph 1017.8mb 74f 68f
11:36 3 6 mph 1017.8mb 74f 67f
11:30 3 7 mph 1017.8mb 74f 67f
11:24 6 8 mph 1017.8mb 74f 67f
11:18 5 8 mph 1017.8mb 74f 68f
11:12 6 8 mph 1017.7mb 74f 68f
11:06 5 7 mph 1017.6mb 74f 68f
11:00 5 7 mph 1017.6mb 74f 68f
10:54 6 8 mph 1017.6mb 74f 68f
10:48 2 5 mph 1017.6mb 74f 68f
10:42 3 6 mph 1017.5mb 74f 68f
10:36 5 6 mph 1017.5mb 74f 68f
10:30 2 3 mph 1017.5mb 74f 68f
10:24 1 3 mph 1017.5mb 74f 68f
10:18 1 5 mph 1017.5mb 74f 68f
10:12 2 3 mph 1017.5mb 74f 68f
10:06 2 3 mph 1017.4mb 74f 69f
10:00 1 5 mph 1017.4mb 74f 69f
9:54 2 5 mph 1017.3mb 74f 69f
9:48  -  2 mph 1017.2mb 74f 69f
9:42 1 3 mph 1017.2mb 74f 69f
9:36 1 3 mph 1017.1mb 74f 69f
9:30 2 3 mph 1017mb 74f 69f
9:24 1 2 mph 1017mb 74f 69f
9:18 1 3 mph 1016.9mb 74f 69f
9:12 2 3 mph 1016.8mb 73f 69f
9:06 2 3 mph 1016.8mb 73f 70f
9:00 2 3 mph 1016.8mb 73f 70f
8:54 2
mph
1016.7mb 74f 70f
8:48 1 2 mph 1016.6mb 74f 70f
8:42 2
mph
1016.5mb 74f 71f
8:36  -  2 mph 1016.4mb 74f 71f
8:30 2 5 mph 1016.4mb 74f 71f
8:24 2 6 mph 1016.2mb 74f 71f
8:18 3 5 mph 1016.2mb 74f 72f
8:12 3 5 mph 1016.1mb 74f 72f
8:06 3 5 mph 1016mb 73f 73f
8:00 2 3 mph 1015.9mb 74f 73f
7:54 2 3 mph 1015.8mb 74f 73f
7:48 3
mph
1015.9mb 74f 73f
7:42 2 3 mph 1015.9mb 74f 74f
7:36 2 3 mph 1015.9mb 74f 74f
7:30 2 3 mph 1015.8mb 74f 74f
7:24 3 5 mph 1015.7mb 74f 74f
7:18 2 5 mph 1015.7mb 74f 75f
7:12 2 3 mph 1015.7mb 74f 75f
7:06 2 3 mph 1015.6mb 74f 75f
7:00 2 5 mph 1015.6mb 74f 76f
6:54 3 5 mph 1015.6mb 74f 76f
6:48 3 7 mph 1015.5mb 73f 76f
6:42 3 7 mph 1015.5mb 74f 76f
6:36 5 7 mph 1015.5mb 74f 76f
6:30 3 6 mph 1015.6mb 74f 77f
6:24 6 9 mph 1015.5mb 75f 77f
6:18 5 8 mph 1015.4mb 74f 77f
6:12 6 11 mph 1015.4mb 74f 77f
6:06 7 10 mph 1015.3mb 74f 78f
6:00 3 6 mph 1015.3mb 73f 78f
5:54 5 8 mph 1015.3mb 73f 78f
5:48 6 9 mph 1015.2mb 73f 77f
5:42 6 7 mph 1015.1mb 73f 78f
5:36 3 8 mph 1015.1mb 73f 78f
5:30 6 9 mph 1015.1mb 74f 78f
5:24 5 13 mph 1015.1mb 74f 78f
5:18 2 7 mph 1015.1mb 73f 79f
5:12 5 10 mph 1015mb 74f 78f
5:06 7 11 mph 1014.9mb 73f 78f
5:00 5 11 mph 1014.9mb 72f 78f
4:54 5 9 mph 1014.8mb 73f 78f
4:48 7 9 mph 1014.8mb 73f 78f
4:42 5 9 mph 1014.9mb 74f 78f
4:36 8 10 mph 1014.9mb 74f 76f
4:30 8 13 mph 1014.9mb 74f 76f
4:24 7 11 mph 1014.9mb 74f 76f
4:18 8 14 mph 1014.9mb - -
4:12  -  mph 1014.9mb 74f 76f
4:06 7 10 mph 1014.9mb 74f 76f
4:00 9 14 mph - - -
3:54 10 17 mph - - -
3:48  -  mph - 75f 76f
3:42  -  mph - 75f 76f
3:36  -  mph - 75f 75f
3:30 11 16 mph 1015.1mb 75f 75f
3:24 6 13 mph 1015mb 75f 75f
3:18  -  mph 1015.1mb - 76f
3:12  -  mph 1015.1mb - 76f
3:06  -  mph 1015.1mb - 75f
3:00 14 17 mph - - 75f
2:54 9 15 mph - - 76f
2:48 11 16 mph - - 75f
2:42 9 17 mph - - 75f
2:36 8 14 mph - - 75f
2:30  -  mph - 75f -
2:24  -  mph - 75f -
2:18 11 18 mph 1015.2mb 75f 75f
2:12 7 14 mph 1015.2mb 74f 76f
2:06 9 14 mph 1015.3mb 74f 76f
2:00 10 14 mph 1015.3mb 74f 76f
1:54 9 14 mph 1015.3mb 74f 76f
1:48 11 16 mph 1015.3mb 74f 75f
1:42 13 15 mph 1015.4mb 75f 75f
1:36 8 13 mph 1015.3mb 75f 77f
1:30 8 11 mph 1015.2mb 75f 77f
1:24 6 13 mph 1015.3mb 75f 77f
1:18 5 10 mph 1015.3mb 75f 78f
1:12 6 10 mph 1015.5mb 75f 77f
1:06 5 9 mph 1015.4mb 74f 77f
1:00 5 14 mph 1015.4mb 75f 77f
12:54 6 9 mph 1015.5mb 75f 79f
12:48 7 11 mph 1015.4mb 75f 78f
12:42 7 13 mph 1015.5mb 75f 78f
12:36 3 13 mph 1015.5mb 75f 78f
12:30  -  mph - - 77f
12:24  -  mph - - 77f
12:18 6 10 mph 1015.7mb 75f 77f
12:12 6 10 mph 1015.6mb 75f 76f
12:06 5 8 mph 1015.7mb 75f 76f
12:00 5 9 mph 1015.7mb 74f 76f
11:54 6 10 mph 1015.6mb 74f 76f
11:48  -  mph - 75f 76f
11:42  -  mph - 75f 76f
11:36  -  mph - 75f 76f
11:30 6 14 mph 1015.8mb 75f 75f
11:24 7 16 mph 1015.8mb 74f 76f
11:18  -  mph - - 75f
11:12  -  mph - - 75f
11:06  -  mph - - 74f
11:00 7 11 mph 1016mb 74f 73f
10:54 8 13 mph 1015.9mb 74f 74f
10:48 7 10 mph 1015.9mb 74f 74f
10:42 7 11 mph 1015.9mb 74f 74f
10:36 7 13 mph 1015.9mb 74f 74f
10:30 5 13 mph 1015.8mb 74f 74f
10:24 9 11 mph 1015.8mb 74f 73f
10:18 7 14 mph 1015.8mb 74f 73f
10:12 9 11 mph 1015.7mb 74f 72f
10:06 9 14 mph 1015.7mb 74f 72f
10:00 8 14 mph 1015.7mb 74f 72f
9:54 7 13 mph 1015.7mb 74f 72f
9:48 7 14 mph 1015.7mb 74f 72f
9:18  -  mph - 74f 71f
9:12  -  mph - 73f 70f
9:06  -  mph - 73f 70f
9:00  -  mph - 74f 70f
8:54  -  mph - 74f 70f
8:48  -  mph - 74f 70f
8:42  -  mph - 74f 70f
8:36  -  mph - 74f 69f
8:30  -  mph - 74f 68f
8:24  -  mph - 74f 67f
8:18  -  mph - 73f 67f
8:12  -  mph - 73f 67f
8:06  -  mph - 73f 67f
8:00 3 5 mph 1015.3mb 73f 66f
7:54 1 5 mph 1015.3mb 74f 66f
7:48  -  mph - 74f 65f
7:42  -  mph - 74f 65f
7:36  -  mph - 74f 65f
7:30  -  mph - - 65f
7:24  -  mph - - 65f
7:18 2 5 mph 1014.9mb 74f 65f
7:12 2 3 mph 1014.8mb 74f 65f
7:06 1 5 mph 1014.8mb 74f 65f
7:00 3 5 mph 1014.8mb 74f 65f
6:54 3 7 mph 1014.7mb 74f 65f
6:48 3 7 mph 1014.6mb 73f 64f
6:42 5 7 mph 1014.6mb 73f 64f
6:36 6 8 mph 1014.5mb 73f 64f
6:30 3 6 mph 1014.5mb 73f 64f
6:24 5 7 mph 1014.5mb 73f 64f
6:18 5 6 mph 1014.4mb 73f 64f
6:12 3 6 mph 1014.3mb 73f 64f
6:06 5 6 mph 1014.3mb 73f 64f
6:00 3 6 mph 1014.2mb 73f 64f
5:54 5 7 mph 1014.2mb 73f 64f
5:48 5 7 mph 1014.1mb 73f 64f
1:30 3 6 mph 1014mb 75f 68f
1:24 5 6 mph 1014mb 75f 68f
1:18 5 7 mph 1014.1mb 75f 68f
1:12 3 6 mph 1014.2mb 75f 68f
1:06 2 6 mph 1014.3mb 75f 68f
1:00 5 6 mph 1014.2mb 75f 68f
12:54 3 6 mph 1014.2mb 75f 68f
12:48 3 6 mph 1014.2mb 75f 68f
12:42 5 6 mph 1014.2mb 75f 68f
12:36 3 7 mph 1014.2mb 75f 68f
12:30 3 6 mph 1014.2mb 75f 68f
12:24 5 7 mph 1014.1mb 74f 68f
12:18 5 7 mph 1014.2mb 74f 68f
12:12 5 6 mph 1014.1mb 75f 68f
12:06 3 7 mph 1014.1mb 75f 68f
12:00 3 7 mph - 75f 68f
mié 08/26 11:54 2 7 mph - 75f 68f
11:48 5 7 mph 1014.1mb 75f 68f
11:42 6 8 mph 1014.1mb 75f 68f
11:36 5 7 mph 1014.1mb 75f 69f
11:30 5 7 mph 1014.1mb 75f 69f
11:24 3 7 mph 1014.1mb 75f 69f
11:18 3 7 mph 1014.1mb 75f 69f
11:12 3 6 mph 1014.1mb 75f 69f
11:06 3 6 mph 1014.1mb 75f 69f
11:00 2 5 mph 1014.1mb 75f 69f
10:54 1 3 mph 1014mb 75f 69f
10:48 2 5 mph 1014mb 75f 69f
10:42 3 6 mph 1013.9mb 75f 69f
10:36 3 6 mph 1013.9mb 75f 69f
10:30 3 6 mph 1013.9mb 76f 69f
10:24 5 7 mph 1013.9mb 75f 70f
10:18 5 7 mph 1013.8mb 75f 70f
10:12 3 5 mph 1013.7mb 75f 70f
10:06  -  3 mph 1013.7mb 75f 70f
10:00 2 3 mph 1013.7mb 75f 70f
9:54 3 5 mph 1013.6mb 75f 70f
9:48 1 2 mph 1013.5mb 75f 70f
9:42 1 2 mph 1013.6mb 75f 71f
9:36 1 3 mph 1013.6mb 75f 71f
9:30 2 3 mph 1013.5mb 75f 71f
9:24  -  2 mph 1013.4mb 75f 72f
9:18 1 2 mph 1013.3mb 75f 72f
9:12  -  2 mph 1013.2mb 75f 72f
9:06 2
mph
1013.1mb 74f 73f
9:00 1 2 mph 1013mb 74f 73f
8:54 2 3 mph 1012.9mb 74f 73f
8:48 3 5 mph 1012.8mb 74f 73f
8:42 2 5 mph 1012.8mb 75f 73f
8:36 2 3 mph 1012.7mb 75f 73f
8:30 2 3 mph 1012.6mb 75f 73f
8:24 2 6 mph 1012.5mb 75f 74f
8:18 3 6 mph 1012.4mb 75f 74f
8:12 3 6 mph 1012.3mb 75f 74f
8:06 3 6 mph 1012.3mb 75f 74f
8:00 3 6 mph 1012.2mb 75f 74f
7:54 2 5 mph 1012.1mb 75f 75f
7:48 3 6 mph 1012.1mb 75f 75f
7:42 3 6 mph 1012mb 75f 75f
7:36 5 6 mph 1012mb 75f 76f
7:30 2 6 mph 1012mb 74f 76f
7:24 3 5 mph 1011.9mb 74f 76f
7:18 3 6 mph 1011.9mb 74f 77f
7:12 3 6 mph 1011.8mb 74f 77f
7:06 3 6 mph 1011.8mb 74f 78f
7:00 5 6 mph 1011.8mb 74f 78f
6:54 3 9 mph 1011.7mb 74f 79f
6:48 3 8 mph 1011.7mb 74f 79f
6:42 5 8 mph 1011.7mb 74f 79f
6:36 5 8 mph 1011.7mb 74f 80f
6:30 8 13 mph 1011.6mb 74f 79f
6:24 3 7 mph 1011.6mb 74f 80f
6:18 6 9 mph 1011.6mb 74f 79f
6:12 5 10 mph 1011.5mb 74f 79f
6:06 6 11 mph 1011.5mb 74f 79f
6:00 7 13 mph 1011.5mb 74f 79f
5:54 6 16 mph 1011.5mb 74f 79f
5:48 9 13 mph 1011.5mb 73f 79f
5:42 9 14 mph 1011.5mb 73f 79f
5:36 10 15 mph 1011.5mb 73f 79f
5:30 9 15 mph 1011.5mb 73f 79f
5:24 9 15 mph 1011.4mb 73f 80f
5:18 9 15 mph 1011.4mb 74f 80f
5:12 9 17 mph 1011.4mb 73f 79f
5:06 8 14 mph 1011.5mb 74f 80f
5:00 9 14 mph 1011.4mb 76f 80f
4:54 5 13 mph 1011.5mb 76f 80f
4:48 8 17 mph 1011.5mb 75f 79f
4:42 9 15 mph 1011.6mb 75f 79f
4:36 9 16 mph 1011.6mb 74f 78f
4:30 8 14 mph 1011.7mb 74f 79f
4:24 8 15 mph 1011.7mb 75f 79f
4:18 6 15 mph 1011.7mb 75f 80f
4:12 9 15 mph 1011.7mb 75f 79f
4:06 8 14 mph 1011.7mb 75f 79f
4:00 5 14 mph 1011.8mb 75f 80f
3:54 7 14 mph 1011.8mb 76f 80f
3:48 9 16 mph 1011.8mb 76f 80f
3:42 8 15 mph 1011.8mb 75f 79f
3:36 11 18 mph 1011.9mb 74f 79f
3:30 13 18 mph 1012mb 74f 79f
3:24 10 16 mph 1012mb 74f 79f
3:18 7 16 mph 1012mb 76f 80f
3:12 9 14 mph 1012mb 76f 79f
3:06 11 15 mph 1012.1mb 75f 78f
3:00 9 16 mph 1012.1mb 75f 80f
2:54 10 15 mph 1012.1mb 75f 78f
2:48 11 15 mph 1012.1mb 76f 78f
2:42 10 16 mph 1012.1mb 76f 78f
2:36 9 14 mph 1012.2mb 76f 78f
2:30 13 16 mph 1012.3mb 76f 78f
2:24 9 14 mph 1012.3mb 76f 79f
2:18 10 14 mph 1012.3mb 75f 79f
2:12 10 15 mph 1012.4mb 75f 79f
2:06 8 15 mph 1012.4mb 76f 79f
2:00 9 15 mph 1012.4mb 76f 77f
1:54 10 17 mph 1012.4mb 76f 77f
1:48 13 17 mph 1012.5mb 76f 78f
1:42 11 17 mph 1012.5mb 76f 79f
1:36 10 16 mph 1012.6mb 76f 77f
1:30 11 15 mph 1012.6mb 76f 77f
1:24 9 15 mph 1012.6mb 76f 76f
1:18 13 20 mph 1012.6mb 77f 77f
1:12 13 16 mph 1012.6mb 76f 77f
1:06 11 16 mph 1012.6mb 76f 77f
1:00 10 16 mph 1012.5mb 76f 78f
12:54 11 16 mph 1012.5mb 76f 78f
12:48 11 16 mph 1012.5mb 76f 78f
12:42 11 15 mph 1012.5mb 76f 77f
12:36 9 14 mph 1012.5mb 77f 78f
12:30 13 15 mph 1012.6mb 76f 78f
12:24 10 15 mph 1012.5mb 76f 78f
12:18 11 18 mph 1012.6mb 76f 78f
12:12 9 14 mph 1012.6mb 75f 78f
12:06 9 13 mph 1012.5mb 76f 78f
12:00 10 14 mph 1012.6mb 75f 77f
11:54 8 11 mph 1012.6mb 75f 77f
11:48 7 14 mph 1012.7mb 75f 77f
11:42 10 14 mph 1012.8mb 75f 76f
11:36 11 16 mph 1012.7mb 75f 76f
11:30 11 17 mph 1012.7mb 75f 77f
11:24 11 15 mph 1012.5mb 74f 77f
11:18 11 15 mph 1012.5mb 74f 76f
11:12 6 10 mph 1012.4mb 74f 77f
11:06 9 10 mph 1012.3mb 74f 77f
11:00 8 10 mph 1012.3mb 74f 77f
10:54 7 9 mph 1012.3mb 75f 77f
10:48  -  2 mph 1012.4mb 75f 77f
10:42 1 3 mph 1012.4mb 75f 76f
10:36 2 3 mph 1012.4mb 75f 75f
10:30 2 5 mph 1012.3mb 75f 74f
10:24 3 5 mph 1012.2mb 75f 74f
10:18 3 5 mph 1012.2mb 75f 74f
10:12 3 5 mph 1012.1mb 75f 74f
10:06 2 3 mph 1012.1mb 75f 74f
10:00 3 5 mph 1012.1mb 75f 75f
9:54 2 5 mph 1012mb 75f 74f
9:48 2 6 mph 1012mb 76f 75f
9:42 3 6 mph 1012mb 75f 74f
9:36 5 6 mph 1012mb 75f 74f
9:30 3 6 mph 1011.9mb 75f 74f
9:24 5 6 mph 1011.8mb 76f 74f
9:18 5 7 mph 1011.7mb 76f 73f
9:12 5 7 mph 1011.8mb 76f 73f
9:06 5 7 mph 1011.8mb 76f 72f
9:00 6 8 mph 1011.9mb 75f 72f
8:54 6 8 mph 1011.8mb 75f 71f
8:48 6 9 mph 1011.8mb 75f 71f
8:42 6 7 mph 1011.8mb 75f 71f
8:36 3 6 mph 1011.7mb 75f 71f
8:30 5 6 mph 1011.7mb 74f 71f
8:24 3 7 mph 1011.7mb 74f 70f
8:18 6 8 mph 1011.7mb 74f 70f
8:12 7 10 mph 1011.7mb 74f 69f
8:06 7 9 mph 1011.7mb 74f 69f
8:00 6 8 mph 1011.7mb 74f 69f
7:54 6 8 mph 1011.7mb 75f 69f
7:48 5 7 mph 1011.7mb 74f 69f
7:42 5 8 mph 1011.7mb 75f 69f
7:36 5 7 mph 1011.6mb 75f 68f
7:30 5 8 mph 1011.6mb 75f 68f
7:24 3 8 mph 1011.5mb 74f 68f
7:18 7 8 mph 1011.5mb 74f 67f
7:12 5 7 mph 1011.4mb 75f 68f
7:06 3 7 mph 1011.5mb 75f 67f
7:00 5 8 mph 1011.4mb 74f 67f
6:54 5 9 mph 1011.4mb 74f 67f
6:48 6 8 mph 1011.4mb 75f 67f
6:42 6 9 mph 1011.2mb 74f 67f
6:36 6 8 mph 1011.1mb 74f 67f
6:30 5 7 mph 1011mb 74f 67f